Flag for Algeria Weather past 2 weeks in Oran, Algeria

46 °F

Passing clouds.

Feels Like: 46 °F
Forecast: 54 / 62 °F
Wind: 2 mph from South

Location: Oran / Es Senia

Current Time: Nov 24, 2015 at 11:50:42 PM

Latest Report: Nov 24, 2015 at 11:00 PM

Visibility: N/A

Pressure: 30.33 "Hg

Humidity: 93%

Dew point: 45 °F

Location of OranLocation

Historic Weather in Oran — Graph


Oran temperature yesterday

Maximum temperature yesterday: 61 °F (at 1:00 PM)
Minimum temperature yesterday: 46 °F (at 3:30 AM)
Average temperature yesterday: 52 °F

Past Weeks' High & Low Weather Summary

High79 °F (Nov 10, 2:00 PM)100% (Nov 10, 7:00 AM)30.48 "Hg (Nov 10, 7:00 AM)
Low43 °F (Nov 20, 6:00 AM)32% (Nov 21, 10:30 AM)29.89 "Hg (Nov 21, 2:30 PM)
Average59 °F83%30.24 "Hg
* Reported Nov 9 10:00 PM — Nov 24 10:30 PM, Oran, Weather by CustomWeather, © 2015

Note: Actual official high and low records may vary slightly from our data, if they occured in-between our weather recording intervals... More about our weather records


Oran weather history for previous 24 hours

Time TempWeatherWind HumidityBarometerVisibility
10:30 PM
Tue, Nov 24
46 °FPassing clouds.6 mph87%30.33 "HgN/A
10:00 PM48 °FPassing clouds.2 mph82%30.33 "HgN/A
9:30 PM46 °FPassing clouds.3 mph87%30.33 "HgN/A
9:00 PM48 °FPassing clouds.No wind82%30.33 "HgN/A
8:30 PM46 °FPassing clouds.No wind82%30.33 "HgN/A
8:00 PM46 °FPassing clouds.5 mph82%30.33 "HgN/A
7:30 PM48 °FPassing clouds.5 mph76%30.33 "HgN/A
7:00 PM50 °FPassing clouds.5 mph76%30.33 "HgN/A
6:30 PM54 °FPassing clouds.5 mph63%30.33 "HgN/A
6:00 PM55 °FPassing clouds.6 mph59%30.30 "HgN/A
5:30 PM57 °FPassing clouds.9 mph48%30.30 "HgN/A
5:00 PM57 °FScattered clouds.9 mph48%30.30 "HgN/A
4:30 PM59 °FScattered clouds.7 mph45%30.30 "HgN/A
4:00 PM59 °FScattered clouds.13 mph51%30.30 "HgN/A
3:30 PM59 °FScattered clouds.12 mph48%30.27 "HgN/A
3:00 PM57 °FScattered clouds.9 mph51%30.27 "HgN/A
2:30 PM59 °FScattered clouds.13 mph45%30.27 "HgN/A
2:00 PM59 °FScattered clouds.13 mph45%30.27 "HgN/A
1:30 PM57 °FScattered clouds.10 mph67%30.27 "HgN/A
1:00 PM57 °FScattered clouds.17 mph72%30.27 "HgN/A
12:30 PM55 °FScattered clouds.10 mph82%30.30 "HgN/A
12:00 PM55 °FScattered clouds.12 mph82%30.30 "HgN/A
11:30 AM54 °FScattered clouds.15 mph82%30.30 "HgN/A
11:00 AM54 °FScattered clouds.13 mph82%30.30 "HgN/A
10:30 AM52 °FScattered clouds.10 mph94%30.30 "HgN/A
10:00 AM50 °FBroken clouds.8 mph100%30.27 "HgN/A
9:30 AM48 °FBroken clouds.8 mph100%30.27 "HgN/A
9:00 AM48 °FLight rain. Broken clouds.7 mph100%30.27 "HgN/A
8:30 AM48 °FLight rain. Broken clouds.2 mph94%30.30 "HgN/A
8:00 AM48 °FBroken clouds.5 mph94%30.30 "HgN/A
7:30 AM48 °FLight rain. Partly cloudy.5 mph94%30.21 "HgN/A
7:00 AM48 °FLight rain. Partly cloudy.5 mph94%30.21 "HgN/A
6:30 AM48 °FLight rain. Partly cloudy.8 mph94%30.18 "HgN/A
6:00 AM48 °FPartly cloudy.8 mph94%30.18 "HgN/A
5:00 AM46 °FPartly cloudy.8 mph93%30.18 "HgN/A
4:00 AM46 °FPartly cloudy.7 mph93%30.18 "HgN/A
3:30 AM48 °FPartly cloudy.2 mph94%30.18 "HgN/A
3:00 AM48 °FPartly cloudy.2 mph94%30.18 "HgN/A
2:30 AM46 °FPartly cloudy.2 mph100%30.18 "HgN/A
2:00 AM46 °FPartly cloudy.2 mph100%30.18 "HgN/A
1:30 AM48 °FLight rain. Partly cloudy.2 mph94%30.18 "HgN/A
1:00 AM48 °FLight rain. Partly cloudy.2 mph94%30.18 "HgN/A
12:30 AM48 °FLight rain. Passing clouds.2 mph82%30.12 "HgN/A
11:30 PM
Mon, Nov 23
46 °FThunderstorms. Partly cloudy.7 mph87%30.18 "HgN/A
11:00 PM46 °FThundershowers. Passing clouds.6 mph87%30.12 "HgN/A
Weather by CustomWeather, © 2015

See weather overviewHow to use our weather pages